User: anonymous   Login
Location: Makanda
(37.6176°N, 89.2090°W)
Time: 22:10:09
(UTC+00:00)
Language:

Resurs 01 Rocket - Orbit

View from above orbital plane
View from above orbital plane
View from above satellite
View from above satellite

Ground track
Ground track

The orbit data is extracted from the following two-line orbital elements,

1 23343U 94074B   19316.76166611  .00000028  00000-0  11313-4 0  9996
2 23343  98.0335   6.2740 0008010 125.3321   7.3477 14.76798279346494
Epoch (UTC): 12 November 2019 18:16:47
Eccentricity: 0.0008010
inclination: 98.0335°
perigee height: 634 km
apogee height: 645 km
right ascension of ascending node: 6.2740°
argument of perigee: 125.3321°
revolutions per day: 14.76798279
mean anomaly at epoch: 7.3477°
orbit number at epoch: 34649

The dashed part of the orbit path shows where the satellite is in the earth's shadow,  

DLR